OpenBCM V2.0.3 (Linux)

Packet Radio Mailbox

IZ3LSV

[San Dona' di P. JN]

 Login: GUEST





  
LU1HVK > KEP      25.09.19 07:29l 252 Lines 12372 Bytes #999 (0) @ WW
BID : 32355_LU1HVK
Read: GUEST
Subj: TLE 25 09
Path: IZ3LSV<IR1UAW<I0OJJ<VE2PKT<N3HYM<IV3BVK<IK5FKA<LU9HGS<LU1HVK
Sent: 190925/0522Z 32355@LU1HVK.2594.CBA.ARG.SA LinBPQ6.0.18

>From lu1hvk%lu1hvk.2594.cba.arg.sa@i0ojj.ampr.org Wed Sep 25 07:25:55 2019
Received: from i0ojj.ampr.org by i0ojj.ampr.org (JNOS2.0k.3b2) with SMTP
	id AA27480 ; Wed, 25 Sep 2019 07:25:55 +0200
Message-Id: <32355_LU1HVK@ve2pkt.bbs>
>From: lu1hvk@lu1hvk.2594.cba.arg.sa
X-JNOS-User-Port: Telnet   (ve2pkt @ 144.172.216.109)  -> Sending message

                         _    _   _ _ _   ___     ___  __
                        | |  | | | / | | | \ \   / / |/ /
                        | |  | | | | | |_| |\ \ / /| ' /
                        | |__| |_| | |  _  | \ V / | . \
                        |_____\___/|_|_| |_|  \_/  |_|\_\

     BBS/NODO - CORDOBA (LEONES-FF87UH) - LU1HVK-4 NODO - LU1HVK-3 APRS

+----------------------------------------------------------------------------+
OSCAR 7
1  7530U 74089B   19267.14449170 -.00000019  00000-0  16150-3 0  9995
2  7530 101.7558 233.8450 0012145 157.3556 268.0774 12.53639980 52731
OSCAR 11 (UoSAT 2)
1 14781U 84021B   19267.12381496  .00000051  00000-0  12343-4 0  9998
2 14781  97.6068 287.2097 0008627  10.1897 349.9491 14.83107430913208
OSCAR 19 (LUSAT)
1 20442U 90005G   19267.42686954 -.00000019  00000-0  94761-5 0  9998
2 20442  98.6551 209.2929 0010982 217.3805 142.6616 14.32933167550372
EYESAT A
1 22825U 93061C   19267.80290179  .00000001  00000-0  18561-4 0  9995
2 22825  98.9113 258.7136 0009470  75.0525 285.1705 14.30066884355975
ITAMSAT
1 22826U 93061D   19267.85165469 -.00000000  00000-0  17844-4 0  9997
2 22826  98.9053 258.7426 0009930  64.7637 295.4573 14.30400884356184
RADIO ROSTO
1 23439U 94085A   19267.78509256 -.00000048  00000-0 -15927-3 0  9995
2 23439  64.8172 317.4972 0145385  94.1633 267.5920 11.27568137 19110
JAS 2
1 24278U 96046B   19266.63869356 +.00000012 +00000-0 +49392-4 0  9992
2 24278 098.5522 046.9531 0350132 348.8529 010.4996 13.53093281140668
TECHSAT 1B
1 25397U 98043D   19267.09901336 -.00000017  00000-0  11815-4 0  9995
2 25397  98.6943 206.0877 0002339 101.5611 258.5830 14.23670885101736
ISS (ZARYA)
1 25544U 98067A   19268.19797311  .00000990  00000-0  25286-4 0  9999
2 25544  51.6426 225.2728 0007541  83.1099   2.3667 15.50108470190770
PCSAT
1 26931U 01043C   19266.96092024 -.00000045  00000-0  14364-4 0  9997
2 26931  67.0498 112.6783 0007434 270.5872  89.4377 14.30552956938888
SAUDISAT 1C
1 27607U 02058C   19267.34506904 -.00000035  00000-0  15908-4 0  9999
2 27607  64.5537 111.0324 0076511 237.5888 121.7797 14.75572828901448
CUTE-1
1 27844U 03031E   19267.86707561  .00000053  00000-0  43563-4 0  9990
2 27844  98.6855 274.6167 0010954 105.4026 254.8363 14.22195690842248
CUBESAT XI 4
1 27848U 03031J   19267.46496963  .00000039  00000-0  37395-4 0  9991
2 27848  98.6931 274.7409 0010752 117.0327 243.1949 14.21788606842038
MOZHAYETS 4
1 27939U 03042A   19267.80273179  .00000127  00000-0  31306-4 0  9998
2 27939  98.0547  41.7838 0014132 115.1357 245.1324 14.66804471854920
CUBESAT XI 5
1 28895U 05043F   19267.88116966  .00000106  00000-0  29167-4 0  9990
2 28895  97.9734  47.3254 0017683  45.3609 314.9032 14.63692676741846
CUTE-1.7+APD II
1 32785U 08021C   19267.84290089  .00000166  00000-0  23495-4 0  9991
2 32785  97.5550 262.9523 0011719 301.4882  58.5189 14.88347111618281
DELFI C3
1 32789U 08021G   19266.95666439  .00001212  00000-0  84609-4 0  9999
2 32789  97.4555 313.6484 0013141 146.9957 213.2094 15.07119735621612
SEEDS
1 32791U 08021J   19266.89039504  .00000365  00000-0  42392-4 0  9993
2 32791  97.5311 268.1084 0011775 275.0713  84.9162 14.90871970618590
YUBELEINY
1 32953U 08025A   19267.83485738  .00000020  00000-0  75656-4 0  9993
2 32953  82.4987  83.7256 0018681 276.2305  83.6634 12.43091191514508
PRISM (HITOMI)
1 33493U 09002B   19267.40444922  .00000870  00000-0  81586-4 0  9994
2 33493  98.1204 192.0630 0014136 215.1771 144.8517 14.96734340579763
KKS-1 (KISEKI)
1 33499U 09002H   19267.19479716  .00000058  00000-0  16538-4 0  9998
2 33499  98.3438 108.9866 0007904 254.6908 105.3427 14.75463347573604
SWISSCUBE
1 35932U 09051B   19266.95535907  .00000102  00000-0  34181-4 0  9998
2 35932  98.5975  75.8312 0006840 220.9460 139.1223 14.56310824530939
BEESAT
1 35933U 09051C   19267.70821850  .00000102  00000-0  33927-4 0  9995
2 35933  98.5995  78.4069 0004892 231.1158 128.9603 14.56396948531157
ITUPSAT 1
1 35935U 09051E   19267.13508731  .00000063  00000-0  25614-4 0  9994
2 35935  98.6104  78.0465 0007189 232.8668 127.1872 14.55552938530817
XIWANG-1 (HOPE-1)
1 36122U 09072B   19267.70574164 -.00000040  00000-0  66888-5 0  9997
2 36122 100.0766 265.4916 0007857 115.7367 244.4562 13.16351263469777
TISAT 1
1 36799U 10035E   19267.38608553  .00000439  00000-0  50328-4 0  9994
2 36799  98.1683  62.8548 0013414 122.7361 237.5151 14.91159348499325
JUGNU
1 37839U 11058B   19265.95707440 +.00000296 +00000-0 +16169-4 0  9998
2 37839 019.9609 111.0082 0018911 308.5027 196.2847 14.12658906410772
SRMSAT
1 37841U 11058D   19267.06321896  .00000297  00000-0  18049-4 0  9992
2 37841  19.9712 163.0910 0011931 185.8384 314.9440 14.10639331410456
M-CUBED/EXP-1 PRIME
1 37855U 11061F   19267.82622165  .00000505  00000-0  33219-4 0  9996
2 37855 101.7126 213.7975 0173054 145.7948 215.4557 15.05589137431540
HORYU 2
1 38340U 12025D   19267.41601896  .00000122  00000-0  25818-4 0  9991
2 38340  98.3208 308.8963 0011842 166.7681 193.3840 14.75750521395572
STRAND 1
1 39090U 13009E   19267.25754779  .00000037  00000-0  27999-4 0  9995
2 39090  98.4797 111.5414 0009326   6.5070 353.6235 14.35097712344380
SOMP
1 39134U 13015E   19267.77257536  .00001142  00000-0  60959-4 0  9998
2 39134  64.8629  62.6322 0035781 288.0572  71.6658 15.20331667355509
BEESAT 3
1 39135U 13015F   19267.47404311  .00000624  00000-0  40519-4 0  9995
2 39135  64.8676  83.2862 0034074 297.4246  62.3415 15.17606538355085
BEESAT 2
1 39136U 13015G   19267.48237072  .00000628  00000-0  41427-4 0  9998
2 39136  64.8683  87.3613 0025829 302.7964  57.0674 15.17026538355004
CUBEBUG 1
1 39153U 13018D   19267.82485904  .00000142  00000-0  25412-4 0  9994
2 39153  97.9807   5.4115 0015802 237.8621 122.1058 14.80597083346337
ZACUBE
1 39417U 13066B   19267.66345626  .00000183  00000-0  29245-4 0  9991
2 39417  97.5629 275.6601 0060435  73.2400 287.5433 14.81150129315547
TRITON 1
1 39427U 13066M   19267.27589449  .00000143  00000-0  30871-4 0  9995
2 39427  97.6876 238.6805 0112893 212.4597 146.9632 14.67880600312654
GOMX 1
1 39430U 13066Q   19267.81280307  .00000167  00000-0  39740-4 0  9990
2 39430  97.7565 217.9471 0150299 305.3362  53.3868 14.59287431310910
HUMSAT D
1 39433U 13066T   19266.57662163 +.00000121 +00000-0 +17148-4 0  9997
2 39433 097.5448 310.0782 0030087 340.2310 019.7741 14.92251971316340
CUBEBUG 2
1 39440U 13066AA  19267.85503803  .00000174  00000-0  30981-4 0  9990
2 39440  97.6083 260.5250 0081440 125.4299 235.4551 14.75887519314451
FUNCUBE 1
1 39444U 13066AE  19267.74476429  .00000235  00000-0  35113-4 0  9995
2 39444  97.5603 277.7753 0059495  66.5931 294.1524 14.81976302314451
UWE-3
1 39446U 13066AG  19267.28498059  .00000180  00000-0  30335-4 0  9999
2 39446  97.5848 267.1099 0071543 101.3402 259.5859 14.78422362313687
SPROUT
1 39770U 14029E   19267.78366174  .00000318  00000-0  41240-4 0  9996
2 39770  97.8883  10.4647 0009572 119.6098 240.6054 14.87427005289413
UNISAT 6
1 40012U 14033C   19267.49694230  .00000131  00000-0  26723-4 0  9999
2 40012  97.7435 129.8298 0059120 141.1517 219.3965 14.74008374283095
DUCHIFAT 1
1 40021U 14033M   19267.48074512  .00000418  00000-0  48435-4 0  9995
2 40021  97.9232 192.3973 0014370  87.3261 272.9602 14.90685189286114
QB50P1
1 40025U 14033R   19267.47934769  .00000196  00000-0  26826-4 0  9990
2 40025  97.9030 186.9950 0013886  96.6601 263.6197 14.88984229285872
CHUBUSAT 1
1 40300U 14070C   19267.81872019  .00000367  00000-0  18913-4 0  9992
2 40300  97.3185 339.4870 0021330  70.7987  67.6612 15.22174550270945
NUDT-PHONESAT
1 40900U 15049B   19267.81448006  .00001386  00000-0  61793-4 0  9996
2 40900  97.4387 276.2014 0012117 193.5363 293.4149 15.23053740222599
ZDPS 2A
1 40901U 15049C   19267.70587248  .00000405  00000-0  23354-4 0  9999
2 40901  97.4625 272.1252 0012299 216.8585 203.3082 15.17836465222109
ZDPS 2B
1 40902U 15049D   19267.81550797  .00000757  00000-0  40854-4 0  9995
2 40902  97.4577 269.6511 0012269 213.8006 247.8591 15.17691000222097
XW-2A
1 40903U 15049E   19267.82918543  .00001192  00000-0  29809-4 0  9995
2 40903  97.3289 311.1097 0014212 144.1122 278.2772 15.42104180225373
KAITUO 1A
1 40904U 15049F   19267.79070480  .00000671  00000-0  38939-4 0  9996
2 40904  97.4710 268.1372 0013236 224.6023 231.9367 15.15438478221855
OBJECT G
1 40905U 15049G   19267.86562916  .00000349  00000-0  22615-4 0  9991
2 40905  97.4757 265.6597 0014521 219.1632 187.9240 15.14345886221737
XW-2C
1 40906U 15049H   19267.70947942  .00000145  00000-0  11058-4 0  9994
2 40906  97.4714 268.1825 0013451 215.7850 263.9410 15.15753842221840
XW-2D
1 40907U 15049J   19267.72895444  .00000624  00000-0  35960-4 0  9996
2 40907  97.4692 267.8823 0012924 212.2123 202.9642 15.15951534221869
LILACSAT 2
1 40908U 15049K   19267.74531105  .00000098  00000-0  90610-5 0  9999
2 40908  97.4831 266.6206 0014602 221.0303 193.3725 15.13849077221647
XW-2F
1 40910U 15049M   19267.78385417  .00000828  00000-0  44704-4 0  9992
2 40910  97.4657 270.0812 0013898 202.9772 150.6126 15.17425876221880
XW-2B
1 40911U 15049N   19267.77553571  .00000233  00000-0  15622-4 0  9997
2 40911  97.4717 268.5944 0012886 212.6816 253.5730 15.15877223221765
KAITUO 1B
1 40912U 15049P   19267.82102145  .00000774  00000-0  39327-4 0  9999
2 40912  97.4517 273.9137 0014471 183.4797 301.1994 15.19752130222219
